Tracking 25612 objects as of 20-May-2022
HD Live streaming from Space Station
objects crossing your sky now

DELTA 2 R/B(1)

Track DELTA 2 R/B(1) now!
10-day predictions


NORAD ID: 24809
Int'l Code: 1997-025B
Perigee: 652.3 km
Apogee: 1,654.5 km
Inclination: 26.3 °
Period: 108.3 minutes
Semi major axis: 7524 km
RCS: 10.0934 m2 (large)
Launch date: May 20, 1997
Source: United States (US)
Launch site: AIR FORCE EASTERN TEST RANGE (AFETR)

Note: This is a ROCKET BODY
aabbcc
Your satellite tracking list
Your tracking list is empty




NASA's NSSDC Master Catalog

Two Line Element Set (TLE):
1 24809U 97025B   22139.84139747  .00000326  00000-0  11600-3 0  9998
2 24809  26.2987 281.5584 0665919 261.6457  90.8062 13.30134582215484
Source of the keplerian elements: AFSPC